Carroll, IA

10:26 PM CDT on July 24, 2017 (GMT -0500)
Neu

Weather History for KCIN - November, 2012

Change the Weather History Date:

Friday, November 23, 2012

  Actual Average Record
Temperature  
Mean Temperature 24 °F -  
Max Temperature 35 °F 40 °F 62 °F (1966)
Min Temperature 12 °F 23 °F 1 °F (1950)
Degree Days  
Heating Degree Days 42    
Moisture  
Dew Point 13 °F    
Average Humidity 61    
Maximum Humidity 79    
Minimum Humidity 47    
Precipitation  
Precipitation 0.00 in - - ()
Sea Level Pressure  
Sea Level Pressure 30.35 in    
Wind  
Wind Speed 23 mph (NW)    
Max Wind Speed 33 mph    
Max Gust Speed 46 mph    
Visibility 10 miles    
Events Rain    
Averages and records for this station are not official NWS values.
T = Trace of Precipitation, MM = Missing Value Source: NWS Daily Summary

Daily Weather History Graph

Daily Weather History Graph

Search for Another Location

Airport or City:

Trip Planner

Search our weather history database for the weather conditions in past years. The results will help you decide how hot, cold, wet, or windy it might be!

Date:

Astronomy

Nov. 23, 2012 Rise Set
Actual Time 7:19 AM CST 4:51 PM CST
Civil Twilight 6:48 AM CST 5:22 PM CST
Nautical Twilight 6:14 AM CST 5:56 PM CST
Astronomical Twilight 5:41 AM CST 6:30 PM CST
Moon 2:10 PM CST (11/23) 2:35 AM CST (11/23)
Length of Visible Light 10h 33m
Length of Day
9h 32m
Waxing Gibbous, 80% of the Moon is Illuminated
Nov 23
Waxing Gibbous
Nov 28
Full
Dec 6
Last Quarter
Dec 13
New
Dec 19
First Quarter

Hourly Weather History & Observations

Time (CST) Temp. Windchill Dew Point Humidity Pressure Visibility Wind Dir Wind Speed Gust Speed Precip Events Conditions
12:15 AM 35.6 °F 23.4 °F 21.2 °F 56% 30.17 in 10.0 mi NW 25.3 mph 36.8 mph N/A   Overcast
12:55 AM 33.8 °F 21.0 °F 21.2 °F 60% 30.18 in 10.0 mi NW 25.3 mph 34.5 mph N/A   Overcast
1:15 AM 32.0 °F 17.6 °F 19.4 °F 60% 30.19 in 10.0 mi NW 29.9 mph 38.0 mph N/A Rain Light Rain
1:35 AM 32.0 °F 17.6 °F 17.6 °F 55% 30.20 in 10.0 mi NW 29.9 mph 41.4 mph N/A Rain Light Rain
1:55 AM 32.0 °F 18.9 °F 17.6 °F 55% 30.20 in 10.0 mi NW 24.2 mph 36.8 mph N/A   Overcast
2:15 AM 30.2 °F 14.7 °F 15.8 °F 55% 30.22 in 10.0 mi NW 32.2 mph 42.6 mph N/A   Mostly Cloudy
2:35 AM 30.2 °F 15.4 °F 15.8 °F 55% 30.23 in 10.0 mi NW 28.8 mph 46.0 mph N/A Rain Light Freezing Rain
2:55 AM 28.4 °F 13.0 °F 17.6 °F 64% 30.24 in 10.0 mi NW 28.8 mph 40.3 mph N/A   Overcast
3:15 AM 28.4 °F 13.3 °F 17.6 °F 64% 30.25 in 10.0 mi NW 27.6 mph 38.0 mph N/A   Overcast
3:35 AM 28.4 °F 13.5 °F 17.6 °F 64% 30.25 in 10.0 mi NW 26.5 mph 35.7 mph N/A   Overcast
3:55 AM 28.4 °F 13.0 °F 17.6 °F 64% 30.26 in - NW 28.8 mph 35.7 mph N/A   Overcast
4:15 AM 26.6 °F 11.1 °F 15.8 °F 64% 30.26 in 10.0 mi NW 26.5 mph 36.8 mph N/A   Mostly Cloudy
4:35 AM 26.6 °F 10.0 °F 15.8 °F 64% 30.27 in 10.0 mi NW 31.1 mph 39.1 mph N/A   Scattered Clouds
4:55 AM 24.8 °F 7.9 °F 14.0 °F 64% 30.28 in 10.0 mi NW 29.9 mph 41.4 mph N/A   Partly Cloudy
5:15 AM 24.8 °F 10.0 °F 14.0 °F 64% 30.29 in 10.0 mi NW 21.9 mph 33.4 mph N/A   Clear
5:35 AM 23.0 °F 8.7 °F 14.0 °F 68% 30.30 in 10.0 mi NW 18.4 mph 28.8 mph N/A   Clear
5:55 AM 23.0 °F 7.6 °F 14.0 °F 68% 30.30 in 10.0 mi NW 21.9 mph 29.9 mph N/A   Clear
6:15 AM 23.0 °F 8.0 °F 14.0 °F 68% 30.31 in 10.0 mi NW 20.7 mph - N/A   Clear
6:35 AM 23.0 °F 7.6 °F 14.0 °F 68% 30.32 in 10.0 mi NW 21.9 mph 29.9 mph N/A   Clear
6:55 AM 23.0 °F 6.0 °F 14.0 °F 68% 30.32 in 10.0 mi NW 27.6 mph - N/A   Clear
7:15 AM 21.2 °F 4.5 °F 14.0 °F 74% 30.33 in 10.0 mi NW 24.2 mph 31.1 mph N/A   Clear
7:35 AM 21.2 °F 3.5 °F 14.0 °F 74% 30.33 in 10.0 mi NW 27.6 mph 35.7 mph N/A   Clear
7:55 AM 23.0 °F 6.6 °F 14.0 °F 68% 30.34 in 10.0 mi NW 25.3 mph - N/A   Clear
8:15 AM 23.0 °F 6.3 °F 14.0 °F 68% 30.34 in 10.0 mi NW 26.5 mph 33.4 mph N/A   Scattered Clouds
8:35 AM 23.0 °F 6.0 °F 14.0 °F 68% 30.36 in 10.0 mi NW 27.6 mph 34.5 mph N/A   Mostly Cloudy
8:55 AM 23.0 °F 6.0 °F 12.2 °F 63% 30.38 in 10.0 mi NW 27.6 mph 38.0 mph N/A   Overcast
9:15 AM 23.0 °F 6.0 °F 12.2 °F 63% 30.39 in 10.0 mi NW 27.6 mph 35.7 mph N/A   Overcast
9:35 AM 23.0 °F 4.9 °F 12.2 °F 63% 30.39 in 10.0 mi NW 32.2 mph 39.1 mph N/A Rain Light Freezing Rain
9:55 AM 24.8 °F 7.1 °F 12.2 °F 59% 30.40 in 10.0 mi NW 33.4 mph - N/A   Overcast
10:15 AM 24.8 °F 7.9 °F 12.2 °F 59% 30.41 in 10.0 mi NNW 29.9 mph 39.1 mph N/A   Overcast
10:35 AM 26.6 °F 10.3 °F 12.2 °F 55% 30.41 in 10.0 mi NW 29.9 mph - N/A   Mostly Cloudy
10:55 AM 26.6 °F 11.4 °F 12.2 °F 55% 30.41 in 10.0 mi NNW 25.3 mph 35.7 mph N/A   Partly Cloudy
11:15 AM 26.6 °F 11.7 °F 12.2 °F 55% 30.41 in 10.0 mi NW 24.2 mph 32.2 mph N/A   Partly Cloudy
11:35 AM 28.4 °F 13.5 °F 12.2 °F 51% 30.41 in 10.0 mi NW 26.5 mph 35.7 mph N/A   Scattered Clouds
11:55 AM 28.4 °F 13.5 °F 12.2 °F 51% 30.40 in 10.0 mi NW 26.5 mph 33.4 mph N/A   Partly Cloudy
12:15 PM 28.4 °F 13.8 °F 12.2 °F 51% 30.40 in 10.0 mi NW 25.3 mph 34.5 mph N/A   Clear
12:35 PM 30.2 °F 15.7 °F 12.2 °F 47% 30.39 in 10.0 mi NNW 27.6 mph 33.4 mph N/A   Clear
12:55 PM 30.2 °F 16.5 °F 12.2 °F 47% 30.39 in 10.0 mi NW 24.2 mph 32.2 mph N/A   Clear
1:15 PM 30.2 °F 16.2 °F 12.2 °F 47% 30.39 in 10.0 mi NNW 25.3 mph - N/A   Clear
1:35 PM 30.2 °F 16.5 °F 12.2 °F 47% 30.40 in 10.0 mi NW 24.2 mph 32.2 mph N/A   Clear
1:55 PM 30.2 °F 16.8 °F 12.2 °F 47% 30.39 in 10.0 mi NW 23.0 mph 32.2 mph N/A   Clear
2:15 PM 30.2 °F 17.1 °F 12.2 °F 47% 30.39 in 10.0 mi NW 21.9 mph 29.9 mph N/A   Clear
2:35 PM 30.2 °F 17.8 °F 12.2 °F 47% 30.39 in 10.0 mi NW 19.6 mph 29.9 mph N/A   Clear
2:55 PM 30.2 °F 16.8 °F 12.2 °F 47% 30.39 in 10.0 mi NW 23.0 mph - N/A   Clear
3:15 PM 30.2 °F 16.8 °F 12.2 °F 47% 30.39 in 10.0 mi NW 23.0 mph - N/A   Clear
3:35 PM 30.2 °F 17.4 °F 12.2 °F 47% 30.40 in 10.0 mi NW 20.7 mph - N/A   Clear
3:55 PM 30.2 °F 17.8 °F 12.2 °F 47% 30.40 in 10.0 mi NNW 19.6 mph - N/A   Clear
4:15 PM 28.4 °F 15.8 °F 12.2 °F 51% 30.40 in 10.0 mi NW 18.4 mph - N/A   Clear
4:35 PM 28.4 °F 17.5 °F 12.2 °F 51% 30.40 in 10.0 mi NW 13.8 mph 25.3 mph N/A   Clear
4:55 PM 26.6 °F 15.7 °F 12.2 °F 55% 30.40 in 10.0 mi NW 12.7 mph - N/A   Clear
5:15 PM 26.6 °F 15.7 °F 12.2 °F 55% 30.40 in 10.0 mi NW 12.7 mph - N/A   Clear
5:35 PM 24.8 °F 14.0 °F 12.2 °F 59% 30.41 in 10.0 mi NW 11.5 mph - N/A   Clear
5:55 PM 24.8 °F 14.6 °F 12.2 °F 59% 30.40 in 10.0 mi NW 10.4 mph - N/A   Clear
6:15 PM 24.8 °F 14.6 °F 12.2 °F 59% 30.41 in 10.0 mi WNW 10.4 mph - N/A   Clear
6:35 PM 23.0 °F 13.1 °F 10.4 °F 59% 30.41 in 10.0 mi WNW 9.2 mph - N/A   Clear
6:55 PM 21.2 °F 10.9 °F 10.4 °F 63% 30.41 in 10.0 mi WNW 9.2 mph - N/A   Clear
7:15 PM 21.2 °F 11.7 °F 10.4 °F 63% 30.41 in 10.0 mi WNW 8.1 mph - N/A   Clear
7:35 PM 19.4 °F 10.4 °F 10.4 °F 68% 30.40 in 10.0 mi West 6.9 mph - N/A   Clear
7:55 PM 19.4 °F 11.5 °F 10.4 °F 68% 30.40 in 10.0 mi WNW 5.8 mph - N/A   Clear
8:15 PM 17.6 °F 8.2 °F 8.6 °F 68% 30.39 in 10.0 mi WNW 6.9 mph - N/A   Clear
8:35 PM 17.6 °F 9.3 °F 10.4 °F 73% 30.39 in 10.0 mi West 5.8 mph - N/A   Clear
8:55 PM 17.6 °F 7.3 °F 8.6 °F 68% 30.39 in 10.0 mi West 8.1 mph - N/A   Clear
9:15 PM 17.6 °F 6.4 °F 10.4 °F 73% 30.39 in 10.0 mi West 9.2 mph - N/A   Clear
9:35 PM 15.8 °F 5.1 °F 10.4 °F 79% 30.39 in 10.0 mi West 8.1 mph - N/A   Clear
9:55 PM 15.8 °F 5.1 °F 10.4 °F 79% 30.39 in 10.0 mi West 8.1 mph - N/A   Clear
10:15 PM 15.8 °F 5.1 °F 10.4 °F 79% 30.39 in 10.0 mi West 8.1 mph - N/A   Clear
10:35 PM 15.8 °F 4.2 °F 10.4 °F 79% 30.38 in 10.0 mi West 9.2 mph - N/A   Clear
10:55 PM 15.8 °F 6.1 °F 8.6 °F 73% 30.38 in 10.0 mi WNW 6.9 mph - N/A   Clear
11:15 PM 14.0 °F 3.9 °F 8.6 °F 79% 30.37 in 10.0 mi WNW 6.9 mph - N/A   Clear
11:35 PM 12.2 °F 1.7 °F 6.8 °F 79% 30.37 in 10.0 mi WNW 6.9 mph - N/A   Clear
11:55 PM 14.0 °F 6.5 °F 8.6 °F 79% 30.36 in 10.0 mi WNW 4.6 mph - N/A   Clear